Regional Weather Roundup
Issued by NWS

Home | Current Version | Previous Version | Graphics & Text | Print | Product List | Glossary On
Versions: 1 2 3 4 5 6 7 8 9 10 11 12 13 14 15 16 17 18 19 20 21 22 23 24 25 26 27 28 29 30 31 32 33 34 35 36 37 38 39 40 41 42 43 44 45 46 47 48 49 50
003
ASUS43 KBIS 271110
RWRND

NORTH DAKOTA REGIONAL WEATHER ROUNDUP
NATIONAL WEATHER SERVICE BISMARCK ND
600 AM CDT TUE SEP 27 2016

NOTE: "FAIR" INDICATES FEW OR NO CLOUDS BELOW 12,000 FEET WITH NO
SIGNIFICANT WEATHER AND/OR OBSTRUCTIONS TO VISIBILITY.


NDZ001>003-009>011-017-271200-
NORTHWEST NORTH DAKOTA

CITY           SKY/WX    TMP DP  RH WIND       PRES   REMARKS
WILLISTON      CLEAR     38  36  92 CALM      30.02S
MINOT          CLEAR     41  36  82 SW5       30.01S
MINOT AFB      CLEAR     38  34  87 W6        30.00S
$$

NDZ018>021-031>035-040>046-271200-
SOUTHWEST NORTH DAKOTA

CITY           SKY/WX    TMP DP  RH WIND       PRES   REMARKS
BISMARCK       CLEAR     41  37  86 CALM      30.03S
DICKINSON      CLEAR     41  37  86 W5        30.02S
GARRISON         N/A     37  35  92 N3        30.01F
HETTINGER ARPT CLEAR     38  36  92 CALM      30.06F
$$

NDZ004>008-012>016-024-026-027-054-271200-
NORTHEAST NORTH DAKOTA

CITY           SKY/WX    TMP DP  RH WIND       PRES   REMARKS
GRAND FORKS    CLEAR     40  36  86 W9        29.90F
GRND FRKS AFB  CLEAR     45  38  75 NW10      29.91S
DEVILS LAKE    CLEAR     39  35  86 NW7       29.97S
$$

NDZ022-023-025-028>030-036>039-047>053-271200-
SOUTHEAST NORTH DAKOTA

CITY           SKY/WX    TMP DP  RH WIND       PRES   REMARKS
FARGO          CLEAR     40  35  83 W8        29.92F
JAMESTOWN      CLEAR     43  38  82 W10       29.98S
$$





USA.gov is the U.S. government's official web portal to all federal, state and local government web resources and services.